Home > Weather > Bloomington > Past weeks

Flag for USA Past Weather in Bloomington, Indiana, USA — Yesterday and Last 2 Weeks

Now
72 °F

Fog.


Feels Like: 68 °F
Forecast: 72 / 90 °F
Wind: No wind

Location: Monroe County Airport

Current Time: Jun 27, 2016 at 7:32:01 AM

Latest Report: Jun 27, 2016 at 6:53 AM


Visibility: 0 mi

Pressure: 30.06 "Hg

Humidity: 93%

Dew Point: 70 °F

Location of BloomingtonLocation

Past Weather in Bloomington — Graph

°F

Bloomington Temperature Yesterday

Maximum temperature yesterday: 92 °F (at 4:53 PM)
Minimum temperature yesterday: 71 °F (at 5:53 AM)
Average temperature yesterday: 81 °F

High & Low Weather Summary for the Past Weeks

 TemperatureHumidityPressure
High92 °F (Jun 12, 2:53 PM)93% (Jun 14, 10:53 PM)30.26 "Hg (Jun 14, 10:53 PM)
Low60 °F (Jun 18, 6:53 AM)29% (Jun 21, 1:53 PM)29.77 "Hg (Jun 15, 3:53 PM)
Average77 °F68%29.99 "Hg
* Reported Jun 12 5:53 AM — Jun 27 5:53 AM, Bloomington, Weather by CustomWeather, © 2016

Note: Actual official high and low records may vary slightly from our data, if they occured in-between our weather recording intervals... More about our weather records

Advertising

Bloomington Weather History for the Previous 24 Hours

Scroll right to see more
 ConditionsComfort  
Time TempWeatherWind HumidityBarometerVisibility
5:53 AM
Mon, Jun 27
72 °FFog.No wind93%30.05 "Hg1 mi
4:53 AM72 °FLow clouds.No wind91%30.04 "Hg9 mi
3:53 AM72 °FPassing clouds.No wind91%30.04 "Hg10 mi
3:04 AM72 °FPassing clouds.3 mph91%30.05 "Hg10 mi
1:53 AM72 °FClear.3 mph91%30.02 "Hg10 mi
12:53 AM72 °FLight rain. Partly cloudy.3 mph91%30.03 "Hg10 mi
11:53 PM
Sun, Jun 26
72 °FLight rain. Passing clouds.8 mph91%30.03 "Hg10 mi
10:53 PM72 °FThundershowers. Passing clouds.5 mph91%30.04 "Hg10 mi
10:01 PM71 °FStrong thunderstorms. Fog.20 mph90%30.07 "Hg1 mi
9:53 PM72 °FStrong thunderstorms. Fog.9 mph87%30.08 "Hg1 mi
8:53 PM84 °FThunderstorms. Partly sunny.No wind72%29.99 "Hg10 mi
7:53 PM88 °FSunny.3 mph57%29.96 "Hg10 mi
6:53 PM91 °FSunny.6 mph47%29.96 "Hg10 mi
5:53 PM92 °FSunny.9 mph47%29.96 "Hg10 mi
4:53 PM92 °FSunny.12 mph46%29.99 "Hg10 mi
3:53 PM91 °FScattered clouds.10 mph50%30.01 "Hg10 mi
2:53 PM91 °FScattered clouds.10 mph50%30.03 "Hg10 mi
1:53 PM90 °FScattered clouds.10 mph54%30.05 "Hg10 mi
12:53 PM89 °FSunny.5 mph53%30.06 "Hg10 mi
11:53 AM86 °FPassing clouds.7 mph59%30.07 "Hg10 mi
10:53 AM84 °FPassing clouds.9 mph65%30.08 "Hg10 mi
9:53 AM82 °FPassing clouds.8 mph67%30.08 "Hg10 mi
8:53 AM79 °FSunny.8 mph72%30.08 "Hg10 mi
7:53 AM75 °FSunny.No wind82%30.06 "Hg10 mi
Weather by CustomWeather, © 2016

See weather overviewHow to use our weather pages